Tracking 23099 objects as of 13-May-2021
HD Live streaming from Space Station
objects crossing your sky now

SL-8 R/B

Track SL-8 R/B now!
10-day predictions


NORAD ID: 21231
Int'l Code: 1991-029B
Perigee: 960.3 km
Apogee: 1,011.3 km
Inclination: 82.9 °
Period: 104.7 minutes
Semi major axis: 7356 km
RCS: 8.0643 m2 (large)
Launch date: April 16, 1991
Source: Commonwealth of Independent States (former USSR) (CIS)
Launch site: PLESETSK MISSILE AND SPACE COMPLEX (PKMTR)

Note: This is a ROCKET BODY
aabbcc
Your satellite tracking list
Your tracking list is empty




NASA's NSSDC Master Catalog

Two Line Element Set (TLE):
1 21231U 91029B   21133.50725424  .00000022  00000-0  70859-5 0  9997
2 21231  82.9489 132.0728 0034669 202.6700 269.1443 13.75833070509649
Source of the keplerian elements: AFSPC